Warning: filectime(): stat failed for /home/allspect/public_html/aero/motest-cam/timelapse-current.mp4 in /home/allspect/public_html/aero/motest-cam/index.php on line 35
All Spectrum Aviation Van Nuys Pilot Shop and Aircraft Supplies - KVNY

All Spectrum Aviation - Van Nuys Airport - KVNY

HOME

Condor Squadron KVNY Webcam

Visit our Electronics Store

Condor Squadron Webcam - Van Nuys Airport - KVNY
Picture taken: Sun, 20 Dec 2020 14:16:37 -0800
YouTube Channel!    Latest Timelapse Movie    Full Size Image    Regular Size Image    

2021/03/02 07:51 KVNY 020751Z AUTO 33003KT 10SM CLR 11/M06 A3004 RMK AO2 SLP168 T01111056 402500072

HOME

Condor Squadron KVNY Webcam

Visit our Electronics Store